GFSMA_925_rhum_048.txt.gz
RH
55 58 62 64 66 66 68 65 60 54 46 42 36 30 26 28 28 30 32 33 40 79 80 76 72 66 63 61 60 60 62 64 69 69 70 71 77 78 76 74 74 77 81
61 61 61 65 62 64 62 58 51 47 40 37 29 25 23 25 23 30 30 38 37 53 68 65 59 57 57 56 55 56 58 60 66 68 66 69 69 73 73 71 72 74 73
62 62 64 66 64 67 59 49 48 39 33 28 27 24 22 22 22 28 32 37 36 35 33 27 22 28 34 48 55 57 61 63 66 66 69 72 70 71 72 73 73 73 71
66 67 67 67 60 48 46 43 36 32 29 25 24 22 23 24 28 27 32 34 37 35 34 32 29 28 36 40 51 59 61 65 68 70 69 69 74 72 74 75 72 74 73
76 73 67 66 53 46 42 39 32 28 25 24 21 18 20 27 34 28 32 33 31 30 34 33 28 28 30 34 42 49 56 66 68 70 69 73 72 75 74 74 74 74 73
80 73 67 60 47 44 39 31 28 24 23 22 22 22 25 29 33 30 31 33 30 30 29 30 26 24 25 34 39 43 51 61 64 69 73 72 73 74 74 74 72 71 70
80 70 63 47 45 38 32 30 28 29 24 18 24 22 27 26 33 33 33 33 27 30 28 26 25 25 27 29 34 39 47 52 60 70 71 73 73 75 75 73 72 70 69
75 64 53 44 37 33 28 26 29 28 30 19 23 30 43 32 28 29 35 30 25 23 25 25 24 26 28 29 29 39 42 49 57 65 70 73 73 74 72 71 69 68 66
66 56 49 45 35 28 28 29 26 29 30 28 20 29 42 44 33 22 30 25 22 25 25 23 25 27 28 28 30 32 38 47 53 61 67 72 71 71 70 68 66 65 64
64 56 49 38 31 30 29 27 26 22 28 29 30 25 24 28 39 41 22 23 24 24 24 26 25 26 27 29 30 32 38 44 50 59 64 68 69 68 66 64 63 61 61
62 54 42 36 31 30 26 25 24 24 24 28 28 29 28 28 27 36 50 35 25 24 26 27 28 27 28 28 31 31 37 44 51 58 63 66 66 66 63 63 67 66 70
46 39 36 31 31 29 28 27 24 24 24 25 28 29 29 32 34 36 48 43 40 34 33 31 27 28 28 30 32 36 40 44 52 55 60 61 63 63 62 60 63 62 69
36 35 34 32 31 30 27 28 28 23 25 32 30 30 29 31 32 32 36 46 52 41 40 35 29 30 30 30 32 35 43 48 50 55 56 61 61 60 59 59 60 63 69
40 37 36 34 31 28 28 26 26 29 26 31 32 34 34 35 35 36 38 46 56 54 45 41 37 34 34 34 37 45 45 52 53 55 57 58 59 60 58 58 61 60 67
38 35 33 31 28 28 29 32 28 31 29 32 32 34 36 38 38 38 40 43 50 62 56 45 43 38 40 42 46 51 53 52 54 55 57 58 57 58 59 58 60 65 72
33 32 32 29 28 28 27 29 28 28 28 30 32 34 37 40 41 42 43 44 45 50 60 46 48 47 48 52 54 56 56 56 55 58 59 58 58 58 60 62 64 70 73
31 31 32 30 28 27 26 27 26 27 29 32 35 38 39 42 44 43 44 44 42 44 58 52 52 55 55 56 56 58 56 59 63 64 56 57 56 58 60 62 64 67 66
31 29 28 28 28 26 25 24 25 27 31 34 37 40 42 45 46 46 47 45 46 49 54 61 61 60 62 60 60 64 69 76 67 58 56 54 58 61 62 65 66 68 65
28 27 26 26 26 26 25 25 27 31 34 38 41 43 44 48 49 50 50 51 57 62 63 67 70 68 66 71 77 81 73 63 58 54 55 58 59 67 69 66 66 64 64
28 27 27 27 26 26 27 29 36 39 42 44 44 45 46 46 46 48 52 56 63 66 70 73 74 82 82 87 80 76 67 59 58 65 66 72 77 68 68 65 68 71 72
28 28 28 27 27 29 27 27 24 39 48 48 46 45 46 44 49 52 54 57 61 65 69 82 89 82 77 78 80 72 65 64 67 74 83 75 70 72 74 73 72 73 73
29 29 30 30 32 29 29 24 49 47 47 52 49 49 47 48 49 53 57 59 60 61 71 78 85 93 92 78 66 67 70 78 84 77 75 79 76 78 78 79 74 72 73
32 31 31 32 32 33 34 29 53 51 46 52 49 48 48 50 53 53 56 58 59 69 71 74 81 76 67 66 67 78 87 96 90 81 82 85 78 78 76 75 75 77 76
33 32 33 33 33 34 34 37 57 47 55 52 50 49 50 51 54 57 56 63 68 73 78 76 68 67 66 72 86 97 92 84 85 83 79 90 79 78 78 82 78 79 80
32 33 34 34 35 35 39 45 62 64 62 56 56 55 59 58 55 58 63 67 80 86 74 69 68 73 76 74 69 71 86 89 84 78 78 83 81 88 86 84 71 66 72
34 34 33 34 35 35 40 52 60 63 68 69 67 67 65 60 63 63 67 77 77 75 71 74 82 75 71 67 72 76 81 96 93 87 72 84 90 92 87 67 66 75 77

GFSMA_925_rhum_051.txt.gz
RH
72 69 61 66 68 70 74 67 62 60 49 42 36 29 24 26 27 27 33 35 40 80 80 74 67 64 63 61 61 61 62 64 68 71 68 72 72 73 76 76 74 77 78
58 56 62 68 71 72 68 62 60 51 48 44 34 26 24 25 24 28 32 36 38 50 64 65 60 57 56 55 59 62 63 65 68 68 72 74 74 74 74 76 77 76 76
58 58 66 65 68 65 63 57 49 46 42 34 27 24 23 22 23 28 31 37 35 34 32 34 42 46 48 47 54 62 64 67 72 74 74 72 74 77 75 77 77 77 78
62 65 63 66 66 67 59 50 46 38 32 26 22 20 22 23 26 28 32 36 36 34 34 32 30 36 38 42 48 53 58 67 71 72 72 76 76 77 79 78 78 76 77
64 64 65 68 63 53 48 46 39 34 26 22 19 19 20 23 32 29 32 34 33 31 29 28 29 24 27 39 45 50 53 60 66 70 76 75 78 77 78 77 76 75 74
69 67 69 65 57 50 47 44 34 25 23 19 19 22 26 26 33 29 32 32 28 29 29 28 26 25 24 27 40 44 48 58 61 68 74 76 77 76 76 75 74 72 72
68 71 71 65 53 50 45 38 28 26 21 17 21 23 28 29 34 30 31 32 30 30 29 27 25 24 23 24 26 38 46 51 58 62 69 74 76 74 74 73 72 71 70
73 76 72 61 50 47 40 29 27 27 26 16 19 34 40 31 28 32 35 36 28 27 24 25 24 24 26 26 26 34 41 46 52 59 65 72 71 72 71 70 69 68 67
79 80 68 54 47 45 35 28 27 27 27 24 18 26 41 42 36 25 37 31 26 25 26 25 26 26 27 27 27 28 30 43 48 54 62 65 69 69 68 67 66 65 64
84 76 62 48 38 34 28 27 26 27 26 26 25 21 21 25 33 28 24 25 26 25 25 22 23 27 28 27 27 28 31 40 46 52 58 62 66 66 65 64 63 63 68
73 60 58 49 41 37 32 28 24 23 25 23 28 28 27 29 29 38 44 37 26 23 21 25 23 24 28 30 31 32 34 43 45 50 55 59 62 62 62 60 62 62 67
64 61 53 44 41 36 32 26 24 21 21 21 23 23 25 30 37 38 49 48 43 33 33 25 29 32 31 32 34 37 48 50 52 54 54 57 61 62 61 60 60 63 68
61 48 49 40 40 36 31 28 22 21 20 22 24 27 28 28 31 33 38 46 53 41 39 36 33 34 34 38 37 42 51 54 53 54 56 59 62 62 61 59 59 60 62
55 45 42 38 38 34 29 26 22 22 21 22 26 29 30 32 34 36 38 45 64 58 44 43 38 39 40 35 40 50 51 57 57 59 62 63 62 63 61 59 58 67 63
46 41 40 40 38 35 30 23 23 22 25 28 29 31 34 36 38 39 41 44 51 71 58 50 46 41 47 48 54 57 58 54 61 62 61 64 65 62 61 61 60 73 73
42 39 40 40 34 32 28 28 26 27 26 29 31 33 34 38 40 41 42 44 46 54 68 46 49 51 54 58 58 60 58 61 63 65 66 65 63 62 62 66 68 65 80
39 40 40 40 34 29 28 26 26 27 26 29 33 36 38 40 43 44 45 46 47 47 62 58 58 62 64 62 61 62 63 67 70 69 67 65 63 62 62 62 67 68 73
39 36 31 32 29 28 26 30 38 27 29 32 35 38 41 43 45 47 48 50 50 51 60 67 69 69 71 70 72 75 77 80 79 71 65 60 59 63 64 68 72 82 66
37 36 33 28 26 26 25 24 25 28 33 37 42 44 44 46 47 47 50 50 51 55 60 65 74 75 76 81 82 89 87 80 75 68 60 61 64 72 76 73 71 70 71
33 29 27 26 26 27 27 30 33 37 42 44 45 45 46 47 46 48 52 54 57 61 64 70 79 82 85 75 80 83 80 74 69 67 66 71 76 78 73 71 75 76 78
29 28 35 46 48 35 30 28 25 30 32 33 36 42 47 48 54 54 55 58 60 62 64 71 90 84 76 76 84 77 78 74 70 72 76 82 88 76 78 79 78 79 83
36 34 36 41 33 29 29 28 30 31 29 35 46 48 49 49 49 56 56 58 60 61 66 76 87 83 83 82 74 74 75 80 83 77 83 85 80 82 81 81 80 78 77
35 32 35 32 32 34 35 33 38 38 36 47 52 51 51 53 55 56 58 61 60 68 70 74 86 89 88 75 73 80 94 98 92 84 86 88 80 80 79 79 78 80 82
50 43 32 32 34 38 35 37 54 47 47 49 54 59 60 62 62 63 61 66 67 71 77 84 80 76 74 82 94 93 90 86 87 83 80 88 80 81 80 82 82 83 83
36 35 34 34 33 34 34 47 56 57 56 54 59 64 70 68 65 65 66 68 75 83 73 73 73 79 80 76 75 77 85 90 86 79 80 85 81 87 86 86 70 66 75
35 32 32 33 34 34 38 47 54 56 57 59 65 68 67 69 68 68 71 76 75 72 67 77 81 69 66 68 79 81 85 96 94 89 70 85 92 95 85 68 67 74 74

GFSMA_925_rhum_054.txt.gz
RH
81 85 81 64 62 65 72 76 75 61 51 43 39 34 30 26 27 28 31 37 53 86 82 71 68 67 65 63 64 65 67 69 72 72 74 76 76 77 77 77 78 78 78
74 83 79 64 68 70 72 76 64 58 48 42 37 30 25 24 25 27 33 38 45 65 70 65 58 56 55 55 62 67 68 70 74 76 78 74 76 79 78 78 80 80 79
71 74 67 66 69 73 75 67 58 50 47 42 32 26 24 23 23 28 34 38 38 38 44 50 48 48 47 50 55 59 62 71 74 74 75 78 80 78 82 80 79 79 78
64 61 59 64 71 74 68 60 52 47 43 35 24 22 24 24 24 29 34 36 36 33 33 31 32 39 43 47 51 57 58 65 70 73 77 80 79 80 79 79 79 77 77
62 60 59 68 70 67 61 57 51 46 37 26 21 19 21 23 29 31 34 35 34 32 30 29 26 23 22 33 45 50 54 58 64 68 76 78 79 78 77 77 76 75 74
61 61 64 68 68 66 58 51 48 40 28 22 20 22 24 28 33 30 32 34 33 30 30 28 25 24 23 23 32 43 48 54 60 65 67 73 76 76 75 74 74 72 71
61 63 68 68 66 61 54 48 44 30 24 20 23 26 30 31 32 30 32 33 32 31 30 28 25 24 24 25 25 35 42 49 53 58 65 70 74 73 71 72 71 69 69
62 69 68 68 64 55 48 46 42 27 24 19 20 32 39 32 31 35 34 35 35 31 28 26 26 27 26 27 27 30 32 41 48 54 59 64 69 69 69 68 68 67 66
66 70 70 70 64 54 50 46 33 27 27 21 18 28 45 39 36 25 34 40 30 27 27 26 24 24 28 28 28 29 29 41 47 52 58 63 64 65 66 67 66 66 64
71 76 75 72 64 54 49 39 29 28 29 25 21 19 20 24 28 23 27 32 27 26 26 22 24 23 25 29 30 31 32 50 46 52 55 60 62 64 65 65 65 61 64
82 82 80 71 62 49 42 33 30 33 28 26 25 24 25 26 27 33 32 34 29 27 23 24 22 27 31 31 29 34 56 55 55 57 59 61 63 63 64 63 63 64 65
86 83 72 62 52 44 38 36 30 28 26 22 23 21 21 27 36 38 47 46 43 29 27 25 25 31 34 35 37 37 54 57 60 59 60 61 63 64 63 64 61 62 61
84 77 66 54 44 44 44 32 28 26 23 19 20 22 23 24 27 32 36 45 50 42 35 32 32 33 36 39 35 36 51 59 59 62 64 66 67 66 65 63 61 63 59
72 66 61 52 50 46 37 34 31 25 22 22 22 25 26 29 30 32 36 43 58 60 48 38 38 38 41 40 48 58 56 61 64 62 65 68 67 67 66 64 60 61 60
70 62 56 50 45 39 37 34 29 23 23 23 26 28 30 34 36 37 39 43 49 64 65 47 44 42 47 50 53 61 61 58 65 67 68 69 68 67 65 64 60 66 85
68 58 55 45 40 39 34 30 28 25 26 27 29 30 32 35 39 40 42 44 47 54 74 51 47 49 52 56 58 65 65 72 68 70 72 71 70 68 66 67 79 69 67
64 56 45 44 40 36 32 29 33 29 26 29 32 35 35 38 40 43 44 46 48 50 68 57 56 57 62 63 66 68 65 66 67 74 75 74 72 69 66 66 66 71 72
53 51 44 39 37 41 37 30 28 34 50 45 35 36 39 42 44 46 48 49 50 50 55 68 65 65 69 67 72 74 72 76 81 82 78 74 69 68 69 70 75 77 82
45 42 40 42 38 30 31 34 28 30 34 39 48 45 45 46 48 48 48 49 50 53 57 65 73 71 71 72 78 78 81 84 77 78 71 69 69 73 78 76 73 74 74
42 38 34 33 30 27 26 29 40 54 57 55 46 46 46 47 48 48 54 56 57 60 62 66 74 76 76 82 79 79 81 76 76 75 74 76 78 78 76 76 78 79 80
45 52 45 32 29 46 64 61 58 52 44 34 34 41 46 49 58 59 56 59 59 60 63 68 82 83 92 83 82 82 83 78 77 79 75 80 77 84 83 83 82 81 85
40 51 65 78 70 68 62 42 36 32 27 37 41 45 48 49 52 64 66 62 61 64 67 76 84 94 89 88 85 87 82 88 86 76 84 85 82 83 83 80 83 82 80
72 74 66 49 48 53 46 51 45 37 35 40 45 52 57 58 58 60 62 67 67 70 69 74 85 89 91 84 82 88 97 99 89 88 87 87 81 83 79 80 79 80 82
54 56 67 67 56 55 59 59 43 44 45 46 51 59 65 68 68 71 69 68 68 73 77 80 81 78 77 87 96 91 83 87 89 85 82 87 79 81 80 80 81 82 83
60 60 45 36 40 45 39 47 51 53 52 53 60 67 72 75 73 71 69 74 85 81 72 70 75 80 83 78 74 80 89 93 88 82 81 86 83 84 84 86 71 63 79
98 66 48 37 34 35 50 50 52 52 54 60 70 71 73 76 74 75 76 74 78 72 66 78 80 69 62 65 80 82 87 97 95 90 68 82 90 94 84 68 68 66 74

GFSMA_925_rhum_057.txt.gz
RH
82 89 92 85 71 69 72 77 78 66 55 52 43 39 35 31 29 29 30 45 80 89 81 73 70 68 62 63 68 70 72 74 76 79 80 77 78 80 80 80 82 82 82
80 86 87 85 78 68 71 77 80 63 51 41 36 33 29 26 26 28 32 42 55 70 72 65 59 58 55 56 63 64 68 75 78 79 77 79 82 81 83 82 80 80 80
75 79 82 84 69 70 72 79 80 60 47 41 38 33 26 24 24 28 35 38 45 48 53 54 52 51 51 53 56 61 62 71 74 77 79 83 80 82 81 80 80 79 78
67 73 80 83 69 73 76 79 69 54 44 41 34 25 23 24 24 28 35 37 36 34 35 33 32 38 40 46 50 55 59 62 67 71 77 80 82 80 79 78 78 77 76
56 69 73 75 70 73 77 75 61 51 44 39 25 20 22 24 26 31 36 36 35 34 32 28 27 23 22 32 45 48 53 55 62 66 72 74 78 79 78 76 75 75 74
64 64 68 64 67 74 74 65 55 46 44 31 22 22 23 27 30 32 37 37 35 31 30 29 26 24 23 24 34 43 49 51 56 63 63 69 74 76 75 73 73 72 71
69 64 65 62 70 71 68 59 49 46 38 25 23 27 30 32 33 32 35 35 34 33 31 30 26 25 25 25 26 35 44 46 49 54 60 64 69 72 72 71 70 70 69
72 66 64 64 68 70 64 56 50 43 27 23 24 30 42 35 37 36 35 36 35 35 33 28 26 26 25 25 27 28 33 46 48 54 58 62 66 69 68 68 68 68 67
72 68 64 63 68 69 64 55 49 47 29 23 22 30 47 42 39 30 36 40 39 34 30 27 26 25 25 24 27 28 29 43 55 54 58 63 65 66 65 67 67 66 67
75 71 68 68 70 69 62 57 49 43 30 25 24 24 23 25 32 25 30 39 34 30 28 25 24 23 26 29 30 32 57 61 60 62 65 67 68 68 66 67 65 66 62
83 79 75 76 74 65 60 58 50 38 30 30 25 24 24 24 22 28 30 33 32 29 28 25 26 26 30 32 31 31 45 60 62 61 63 63 66 69 67 66 66 65 64
88 87 83 83 76 68 62 58 47 36 33 32 28 23 20 26 33 34 43 43 41 27 25 26 28 29 33 32 34 35 38 57 61 62 65 69 70 70 68 68 66 65 63
94 90 89 90 81 69 63 51 42 35 33 30 26 21 20 21 23 30 33 43 44 39 32 28 30 32 34 36 36 36 51 62 66 67 68 71 72 71 70 69 67 65 64
93 92 90 88 77 64 54 47 38 32 28 24 22 22 23 24 25 27 30 39 54 58 48 34 36 38 40 39 44 52 52 66 68 70 71 73 73 72 71 69 67 65 62
91 92 88 79 66 53 49 38 31 31 25 25 26 25 26 29 31 34 35 39 44 56 64 44 40 41 41 45 52 58 64 61 72 73 75 74 73 72 70 68 66 64 66
91 89 83 69 54 54 40 36 32 30 26 28 29 28 30 32 35 38 39 42 45 51 69 49 46 45 46 54 58 64 60 67 65 75 74 76 75 74 71 69 69 73 68
83 80 70 60 55 43 40 36 30 29 27 32 36 39 44 41 41 41 43 45 47 51 70 58 53 51 57 60 62 62 63 60 63 74 79 80 79 75 71 70 69 69 72
77 69 64 56 46 42 36 30 32 40 39 45 54 42 40 43 45 46 47 48 49 50 59 66 60 61 64 63 66 69 69 64 71 72 84 81 76 75 76 75 74 75 79
64 58 53 47 44 40 37 38 40 49 46 41 43 58 59 49 48 48 48 49 49 52 56 65 73 70 69 68 71 79 75 78 76 76 75 77 76 78 82 79 77 74 75
55 54 57 58 47 36 38 40 38 42 59 68 64 59 54 49 47 48 50 57 57 59 62 65 72 75 76 75 83 86 85 80 82 75 78 82 83 83 76 76 80 83 84
46 47 44 35 33 33 37 55 79 85 88 59 44 40 42 46 58 65 63 61 63 64 64 67 81 81 85 91 88 83 92 89 87 81 75 78 79 82 79 82 81 82 86
42 39 46 49 62 83 93 86 65 48 35 35 37 39 41 42 49 60 69 68 66 66 70 76 78 93 94 87 87 92 90 95 88 76 82 87 85 85 78 75 79 86 84
64 74 85 89 87 94 96 93 52 44 40 38 36 39 49 55 60 63 66 74 72 73 73 77 86 87 88 85 83 91 98 100 92 85 88 88 84 86 73 73 76 82 83
90 93 94 95 98 98 96 88 40 42 41 44 51 61 66 68 69 76 75 72 72 79 80 79 81 78 76 85 98 95 89 85 91 90 83 87 77 82 75 78 80 82 82
100 98 98 89 80 83 58 56 46 50 52 56 61 69 76 76 74 77 72 80 88 77 75 73 78 84 85 80 76 81 90 96 89 84 84 87 85 80 82 81 68 59 81
98 95 60 54 43 43 61 54 54 58 61 71 75 73 71 79 80 78 82 79 78 73 69 82 82 72 62 65 74 82 88 99 95 89 70 81 86 94 87 67 68 66 73

GFSMA_925_rhum_063.txt.gz
RH
86 90 92 88 68 72 77 80 81 79 71 74 61 50 47 45 43 37 31 38 92 89 78 75 71 66 68 72 72 72 79 80 80 80 83 85 84 84 83 83 82 82 81
82 85 90 94 82 70 74 78 79 80 66 73 55 46 40 36 31 30 44 89 89 77 75 69 64 60 61 64 66 67 75 75 76 79 84 84 84 84 83 82 81 81 80
84 82 81 88 92 79 73 79 83 80 63 54 46 39 35 34 30 32 46 68 80 67 65 62 60 59 57 59 61 64 65 66 70 72 78 81 83 83 82 81 80 79 78
77 83 82 82 89 89 81 78 83 84 63 50 42 39 35 30 30 33 42 53 58 57 55 53 55 49 50 52 55 56 58 60 62 67 72 74 76 80 80 79 77 76 76
67 76 79 77 86 92 90 78 82 84 68 50 43 38 31 26 26 30 40 45 46 43 40 36 30 25 25 41 48 51 55 56 57 61 68 67 72 75 78 77 76 74 74
73 70 70 74 83 94 94 83 83 81 68 51 40 34 28 27 26 30 39 44 39 37 36 31 27 23 21 22 27 40 53 56 55 57 60 64 68 71 73 74 74 72 72
81 82 75 66 75 85 92 82 85 78 60 47 36 30 29 30 30 33 41 44 40 38 34 32 29 25 24 23 23 22 26 48 56 58 60 63 66 68 71 72 71 71 69
87 86 84 69 65 80 92 88 82 75 54 46 38 40 38 39 39 36 41 44 42 38 35 32 30 28 25 24 23 21 20 39 58 61 63 66 68 71 71 70 69 69 69
87 86 86 80 62 73 84 87 79 76 54 44 34 36 45 42 41 42 39 40 39 37 36 34 32 28 26 24 21 22 30 40 63 66 68 71 73 72 71 70 69 68 69
94 92 89 89 80 71 78 81 77 74 65 50 35 31 33 33 38 40 38 44 42 40 38 36 32 28 26 24 24 25 28 32 63 66 67 69 70 72 71 70 70 68 70
100 98 97 92 87 82 76 78 77 73 67 61 47 40 38 30 26 32 39 41 42 43 40 35 31 28 27 26 27 28 30 51 63 67 67 72 74 74 73 72 71 70 70
100 100 100 100 96 89 84 78 77 76 68 63 58 50 42 33 38 33 35 38 41 40 37 34 33 31 29 29 30 32 33 43 61 67 70 74 76 75 75 74 73 72 71
100 100 100 100 100 98 93 86 82 82 73 65 62 52 43 30 27 27 44 42 38 36 33 34 34 33 32 33 34 37 40 36 60 69 72 76 78 78 78 76 75 74 72
93 98 100 100 100 100 97 92 87 86 80 68 60 49 37 30 25 25 28 42 45 46 44 38 35 35 36 37 36 38 39 43 56 73 74 75 75 77 77 76 74 73 71
96 98 100 100 100 100 100 98 92 88 80 68 54 41 43 35 28 30 30 28 36 52 46 39 36 37 38 37 39 48 59 55 71 75 75 76 75 76 75 74 73 72 70
98 100 100 100 100 100 100 96 90 82 67 53 44 35 31 32 34 39 46 44 56 65 72 42 40 36 42 45 44 54 62 61 70 75 77 78 78 77 76 75 73 74 76
100 100 100 100 100 100 98 90 78 65 49 35 33 34 39 43 51 63 62 68 76 69 81 60 47 45 45 46 53 56 62 69 72 76 78 77 80 80 77 76 76 75 75
100 100 100 100 98 94 84 74 59 41 34 38 44 51 67 71 76 80 88 90 88 68 61 59 60 60 57 58 61 68 68 72 72 71 76 84 82 82 83 82 81 77 79
100 97 91 84 75 64 56 48 39 40 42 52 62 69 76 87 96 99 97 90 78 61 61 84 72 69 72 66 77 80 82 82 80 78 79 82 84 85 87 83 81 79 78
74 73 64 63 58 52 48 44 43 54 69 77 84 90 94 95 97 96 86 79 79 89 85 82 72 76 79 80 86 85 76 71 71 78 80 84 85 82 81 80 82 84 86
67 67 67 62 59 53 55 56 62 71 84 97 100 100 83 63 84 94 91 93 88 79 74 80 81 81 81 76 74 76 76 75 78 81 79 74 73 76 76 78 79 80 83
86 89 92 92 88 78 75 78 84 92 95 96 58 49 46 58 60 55 90 78 74 76 85 87 89 82 79 78 78 76 81 85 80 71 76 77 76 75 73 74 76 82 84
99 88 83 80 98 100 98 98 98 97 81 46 44 49 59 68 64 57 59 76 79 82 84 85 83 79 79 75 81 96 93 91 86 80 81 82 76 75 74 72 78 80 84
99 100 100 100 100 99 99 84 54 42 48 53 60 78 74 69 59 80 81 80 84 83 78 84 82 81 83 90 92 90 84 83 83 80 79 82 73 70 71 74 77 82 76
100 99 99 99 98 98 99 61 56 56 59 79 79 69 74 72 81 79 79 85 85 80 69 70 86 91 89 83 84 87 90 88 88 75 77 80 78 76 79 80 73 64 76
99 99 98 98 96 94 95 88 69 64 66 71 72 71 73 86 81 78 80 79 80 72 80 89 82 64 63 66 70 86 94 100 96 85 76 86 80 85 79 66 71 74 75

GFSMA_925_rhum_066.txt.gz
RH
70 74 74 69 67 68 69 73 73 71 73 66 57 57 56 52 49 48 44 54 93 89 80 77 72 70 73 74 73 77 81 80 81 82 85 84 84 84 84 84 83 82 82
70 75 81 83 72 70 69 72 72 68 68 59 52 48 48 47 46 50 51 76 93 84 77 72 66 63 67 66 68 71 75 73 75 78 84 84 85 84 82 82 82 81 80
78 78 76 81 87 70 70 72 75 69 61 56 50 42 42 43 48 52 56 62 83 77 68 66 62 61 61 63 62 64 66 66 69 71 75 78 79 82 82 81 80 79 78
78 79 77 76 79 83 74 72 74 67 60 52 46 41 40 45 46 49 56 56 57 55 61 63 61 55 54 54 58 57 59 60 62 65 70 72 72 76 80 80 78 77 76
76 77 74 74 77 87 81 76 72 68 63 54 46 42 40 39 44 46 50 55 56 52 48 54 51 41 38 49 51 52 56 58 57 59 65 64 69 72 74 76 76 76 74
78 80 74 74 74 85 89 84 74 70 66 60 45 41 42 39 38 45 48 50 51 53 48 49 45 37 22 26 31 41 52 60 58 59 61 62 66 69 72 74 73 74 72
80 82 78 76 74 77 88 88 79 71 65 58 44 45 42 42 38 41 47 47 48 48 44 47 37 33 30 22 22 22 22 24 55 59 63 65 67 69 71 72 72 71 71
90 88 84 80 77 78 79 88 81 73 67 56 54 51 48 40 38 38 44 45 44 45 43 40 35 34 34 33 36 22 20 29 64 66 68 72 75 76 75 72 71 70 70
98 94 93 90 86 82 80 84 84 74 68 58 52 52 53 54 38 40 41 45 44 46 42 40 37 36 35 34 32 36 25 25 43 64 67 70 72 73 74 72 71 70 69
99 100 100 95 96 92 82 85 86 79 72 62 52 46 44 40 38 39 40 42 43 42 44 42 38 39 38 40 38 38 32 28 56 65 69 70 71 74 74 73 72 70 70
98 100 100 100 100 98 93 89 88 84 77 71 60 53 46 41 36 36 39 39 46 46 44 42 39 38 40 41 45 47 28 28 63 66 67 71 73 75 75 74 73 73 72
97 99 100 100 100 100 100 94 94 89 84 77 71 63 54 50 40 35 35 35 37 44 47 44 40 40 42 42 42 38 30 29 36 61 66 70 74 77 78 77 76 74 72
98 98 99 99 100 99 100 100 99 95 89 82 78 71 60 50 43 38 36 50 46 45 46 48 43 43 44 40 45 38 48 38 44 60 66 72 76 79 79 77 77 76 74
97 100 98 100 100 100 99 100 100 100 96 90 87 76 65 52 44 37 38 44 48 50 51 57 46 47 42 42 40 36 39 54 59 66 71 74 78 80 78 78 78 76 74
96 100 99 99 100 100 100 99 100 100 100 96 87 76 66 46 38 35 47 56 52 58 52 52 50 47 44 42 44 46 44 53 64 72 74 74 77 78 78 78 76 74 73
94 100 100 100 100 100 100 100 100 100 100 97 96 88 70 58 62 54 41 42 51 59 80 66 66 71 69 67 49 50 54 61 67 70 76 81 80 79 78 76 74 73 72
100 99 98 97 100 100 100 100 100 99 91 81 77 78 72 60 47 50 58 61 66 74 93 97 97 94 83 56 57 59 61 61 57 59 67 73 76 79 79 78 78 77 74
98 98 100 100 100 100 100 98 88 82 83 71 62 49 48 54 63 76 85 92 94 96 96 98 83 85 76 77 86 79 63 61 61 63 70 78 84 84 84 84 82 80 78
92 94 94 92 88 89 87 76 68 63 58 48 46 48 64 73 82 92 96 98 99 98 97 92 81 82 81 69 66 65 65 65 62 60 60 68 73 79 83 85 83 81 80
66 65 65 63 66 68 67 69 67 61 55 60 68 75 88 94 97 99 99 94 92 91 81 79 66 60 64 66 70 66 57 56 56 61 65 70 76 76 77 79 81 84 86
77 75 76 78 73 70 68 66 63 65 75 89 98 99 100 100 99 88 94 88 82 81 78 77 70 64 64 58 58 59 59 57 63 66 64 62 60 63 64 64 66 70 72
86 80 86 96 98 98 92 78 82 93 97 99 97 96 90 93 97 87 73 93 82 76 79 78 77 68 61 57 57 58 66 74 77 69 64 64 62 62 62 61 63 71 79
98 99 100 99 100 99 99 99 99 100 97 82 65 71 87 86 63 60 58 80 79 83 83 78 70 63 60 59 73 90 82 86 83 68 67 68 64 64 61 59 62 69 75
100 100 100 99 99 99 99 99 95 68 74 80 91 82 79 76 70 80 76 77 84 82 77 73 69 65 64 72 78 80 75 72 72 68 67 70 64 63 63 63 66 71 74
100 99 98 98 97 98 95 68 75 75 84 92 85 75 74 70 73 84 76 94 76 69 64 72 83 89 91 87 85 82 83 78 80 74 72 72 67 70 72 74 70 68 72
99 98 98 98 99 98 98 83 77 67 60 63 67 70 72 84 83 81 76 70 68 57 71 87 71 64 66 69 82 85 82 91 95 85 67 83 78 81 79 67 68 70 74

GFSMA_925_rhum_069.txt.gz
RH
60 58 54 56 61 60 58 64 62 62 65 61 53 54 54 54 51 47 46 52 95 88 81 78 74 74 77 76 76 82 80 81 80 84 85 85 85 86 84 82 83 83 82
58 60 63 60 58 57 58 60 62 62 61 60 53 52 52 50 48 46 44 67 96 88 80 76 69 68 71 69 71 76 74 73 74 78 82 81 83 83 83 82 81 81 80
60 60 63 71 71 61 58 60 61 61 59 57 51 47 46 45 46 49 49 70 89 87 76 70 67 64 66 66 67 67 68 65 68 69 73 75 77 80 81 82 80 79 79
62 66 66 65 74 73 62 60 62 64 59 56 52 47 44 44 46 48 50 50 70 72 72 67 64 63 61 59 61 60 60 60 62 64 68 71 71 75 77 79 80 79 77
64 68 68 66 64 70 70 64 63 64 59 56 52 47 42 44 47 45 46 49 51 52 57 62 61 56 51 55 54 55 58 58 57 58 62 64 67 71 73 75 76 76 76
66 68 68 66 65 67 74 71 66 65 61 59 53 46 46 43 42 44 45 46 49 54 49 52 55 48 35 45 49 52 55 60 59 59 61 64 66 68 71 73 74 74 73
68 71 71 68 68 67 77 78 72 68 66 62 57 46 46 45 43 41 45 45 46 52 49 45 50 40 35 27 26 26 26 28 42 58 63 66 69 72 75 75 73 72 71
75 74 74 74 70 70 69 82 79 76 68 65 57 53 61 50 45 42 41 44 44 47 46 43 46 35 32 33 31 26 23 22 40 66 69 71 71 74 73 76 75 73 72
85 84 78 79 76 73 72 74 81 79 73 66 58 59 68 66 47 42 39 44 43 44 44 42 41 35 34 36 36 33 26 22 26 61 65 69 72 75 74 75 74 73 72
97 95 91 86 87 83 78 75 78 83 76 70 62 60 57 45 55 53 42 40 43 42 45 41 39 37 37 37 40 47 48 34 26 63 68 69 72 74 75 75 74 74 73
91 98 99 95 95 88 89 85 81 83 80 72 66 61 55 51 43 45 51 45 41 42 42 44 41 39 40 40 44 44 37 26 31 63 64 67 70 74 76 76 76 76 76
81 90 97 99 96 99 94 96 91 92 87 80 71 67 60 61 57 52 59 50 48 46 45 45 43 40 39 39 42 46 43 31 31 60 65 66 70 74 78 79 79 78 77
77 80 92 97 96 94 97 97 97 96 94 90 86 78 69 67 59 54 48 54 54 47 48 48 46 43 43 41 45 41 42 44 36 47 68 67 71 76 79 79 77 78 77
73 82 88 93 94 97 98 100 100 99 100 99 98 91 82 72 64 56 49 52 59 58 52 63 62 55 58 47 52 54 44 49 58 60 68 71 74 75 77 78 80 78 78
75 83 91 97 99 99 100 100 99 100 100 100 100 96 86 75 60 48 52 67 88 93 90 82 66 54 55 53 49 60 61 69 69 63 70 73 78 79 81 80 81 78 77
74 86 94 94 97 95 100 100 100 100 100 100 100 97 87 82 87 93 94 85 86 85 86 70 66 76 78 83 83 92 74 63 66 64 65 69 72 76 78 78 79 78 76
85 88 92 98 92 97 100 100 100 100 100 100 100 97 95 92 91 87 83 82 80 82 92 95 87 93 97 96 89 77 71 68 60 58 59 65 72 77 80 82 81 80 78
88 93 95 98 100 100 99 99 100 99 99 98 92 89 88 80 79 79 83 88 93 93 92 98 98 95 89 74 88 72 57 64 58 60 65 67 73 74 79 82 83 82 81
71 73 76 76 75 84 84 83 89 87 88 89 90 85 75 69 80 90 92 97 97 97 96 97 93 80 82 74 66 63 66 64 63 57 54 56 65 70 78 84 85 86 86
69 72 71 72 72 73 72 75 78 80 83 83 80 81 84 87 94 100 100 99 95 88 88 89 76 63 62 63 64 67 63 57 55 56 61 66 67 68 68 68 70 74 76
84 83 83 81 79 81 90 87 83 81 79 86 92 98 100 100 99 93 83 84 91 85 73 73 76 69 68 64 58 57 58 56 63 71 71 66 61 62 64 64 64 64 65
99 97 98 98 96 98 100 87 81 90 97 100 99 99 99 94 91 87 67 77 92 85 77 80 81 76 66 58 56 57 70 81 81 74 72 74 68 66 65 64 64 65 68
99 98 99 98 99 100 100 100 99 99 100 98 96 95 91 75 48 58 61 78 80 81 80 80 76 68 62 59 62 68 79 82 84 80 72 72 69 69 66 63 64 67 71
99 99 99 96 98 100 100 98 98 97 96 90 90 89 86 75 72 83 81 77 82 81 79 76 70 66 63 63 72 77 79 78 76 76 70 74 71 72 70 69 70 73 76
100 100 98 99 100 99 93 90 82 86 87 78 67 85 77 67 75 84 79 84 80 69 63 62 71 81 86 90 89 87 87 87 81 82 82 83 74 76 76 75 67 73 71
100 100 98 94 89 94 90 80 67 57 57 58 63 67 70 85 83 83 80 71 67 61 59 78 78 70 64 64 70 79 85 87 91 90 73 80 86 90 91 69 72 70 73